CW8192 Weather Reports


time (UTC)temp
C
wind
direction
speed
KPH
gust
KPH
rain 1hr
cm
rain 24hr
cm
rain mn
cm
humidity
%
barometer
mb
20260504110705 7 198 1.6 4.8 0.00 0.00 0.00 74 1010.2
20260504100204 6 193 4.8 9.7 0.00 0.00 0.00 76 1010.0
20260504081704 7 217 3.2 4.8 0.00 0.00 0.00 73 1010.0
20260504081204 7 206 3.2 4.8 0.00 0.00 0.00 73 1009.9
20260504080704 7 226 4.8 16.1 0.00 0.00 0.00 74 1010.0
20260504080204 7 199 4.8 19.3 0.00 0.00 0.00 75 1010.1
20260504070205 6 124 3.2 4.8 0.00 0.00 0.00 84 1010.0
20260504060205 6 133 3.2 4.8 0.00 0.00 0.00 82 1010.1
20260504050204 5 71 1.6 3.2 0.00 0.00 0.00 83 1010.6
20260504045704 5 201 0.0 1.6 0.00 0.00 0.00 83 1010.7
20260504044704 5 202 3.2 4.8 0.00 0.00 0.00 83 1010.9
20260504043705 5 130 1.6 3.2 0.00 0.00 0.00 84 1011.1
20260504043205 5 74 3.2 4.8 0.00 0.00 0.00 84 1011.2
20260504042704 5 113 1.6 3.2 0.00 0.00 0.00 81 1011.2
20260504042204 5 115 0.0 3.2 0.00 0.00 0.00 83 1011.1
20260504041705 5 115 1.6 3.2 0.00 0.00 0.00 84 1011.0
20260504041204 5 130 0.0 4.8 0.00 0.00 0.00 84 1011.0
20260504040705 5 173 0.0 1.6 0.00 0.00 0.00 82 1011.0
20260504035704 5 158 1.6 3.2 0.00 0.00 0.00 81 1010.8
20260504035204 5 117 3.2 4.8 0.00 0.00 0.00 82 1010.8
20260504034704 5 135 3.2 4.8 0.00 0.00 0.00 82 1010.7
20260504034204 5 102 1.6 3.2 0.00 0.00 0.00 82 1010.7
20260504033705 5 99 1.6 3.2 0.00 0.00 0.00 82 1010.6
20260504033206 5 153 0.0 3.2 0.00 0.00 0.00 83 1010.6
20260504032704 5 122 1.6 3.2 0.00 0.00 0.00 82 1010.6
20260504032204 5 138 1.6 3.2 0.00 0.00 0.00 82 1010.6
20260504031704 5 200 1.6 4.8 0.00 0.00 0.00 80 1010.5
20260504031205 4 157 0.0 1.6 0.00 0.00 0.00 78 1010.5
20260504030704 4 144 3.2 4.8 0.00 0.00 0.00 79 1010.5
20260504025705 5 138 3.2 4.8 0.00 0.00 0.00 73 1010.5
20260504025204 5 266 1.6 3.2 0.00 0.00 0.00 71 1010.4
20260504024705 5 271 0.0 1.6 0.00 0.00 0.00 71 1010.4
20260504024204 5 282 0.0 1.6 0.00 0.00 0.00 70 1010.4
20260504023704 6 292 0.0 0.0 0.00 0.00 0.00 69 1010.3
20260504023204 6 292 0.0 0.0 0.00 0.00 0.00 69 1010.4
20260504022705 6 292 0.0 0.0 0.00 0.00 0.00 68 1010.4
20260504022204 6 292 0.0 0.0 0.00 0.00 0.00 69 1010.5
20260504021704 7 292 0.0 0.0 0.00 0.00 0.00 67 1010.6
20260504021204 7 292 0.0 0.0 0.00 0.00 0.00 65 1010.6
20260504020704 7 292 0.0 0.0 0.00 0.00 0.00 64 1010.5
20260504015704 7 292 0.0 3.2 0.00 0.00 0.00 65 1010.6
20260504014704 7 277 1.6 3.2 0.00 0.00 0.00 62 1010.6
20260504013204 8 286 1.6 3.2 0.00 0.00 0.00 61 1010.4
20260504012704 8 288 3.2 4.8 0.00 0.00 0.00 60 1010.4
20260504012205 8 280 3.2 4.8 0.00 0.00 0.00 60 1010.4
20260504011205 8 290 4.8 9.7 0.00 0.00 0.00 59 1010.2
20260504010704 8 291 4.8 9.7 0.00 0.00 0.00 60 1010.1
20260504005704 8 289 4.8 12.9 0.00 0.00 0.00 58 1010.0
20260504005204 8 287 4.8 11.3 0.00 0.00 0.00 59 1010.0
20260504004705 8 287 6.4 16.1 0.00 0.00 0.00 58 1009.9
20260504004204 9 279 9.7 14.5 0.00 0.00 0.00 57 1010.0
20260504003704 9 274 8.0 12.9 0.00 0.00 0.00 57 1009.9
20260504003204 9 289 8.0 14.5 0.00 0.00 0.00 57 1009.9
20260504002704 9 288 9.7 12.9 0.00 0.00 0.00 56 1009.8
20260504002204 9 290 11.3 19.3 0.00 0.00 0.00 56 1009.8
20260504001703 9 281 11.3 22.5 0.00 0.00 0.00 56 1009.7
20260504001204 9 277 9.7 19.3 0.00 0.00 0.00 55 1009.6
20260504000204 10 288 12.9 20.9 0.00 0.00 0.00 54 1009.4
20260503235704 10 289 14.5 22.5 0.00 0.00 0.00 53 1009.4
20260503235204 10 278 11.3 22.5 0.00 0.00 0.00 53 1009.3
20260503234704 10 284 16.1 29.0 0.00 0.00 0.00 53 1009.3
20260503234204 10 303 14.5 29.0 0.00 0.00 0.00 52 1009.2
20260503233204 10 290 11.3 19.3 0.00 0.00 0.00 51 1009.1
20260503232204 10 298 12.9 22.5 0.00 0.00 0.00 49 1008.8
20260503231204 11 291 16.1 24.1 0.00 0.00 0.00 50 1008.7
20260503230704 11 303 14.5 22.5 0.00 0.00 0.00 51 1008.7
20260503230204 10 294 14.5 22.5 0.00 0.00 0.00 50 1008.6
20260503225704 11 278 11.3 19.3 0.00 0.00 0.00 50 1008.6
20260503225204 11 280 9.7 19.3 0.00 0.00 0.00 49 1008.5
20260503224704 11 299 9.7 20.9 0.00 0.00 0.00 48 1008.6
20260503224203 11 291 11.3 19.3 0.00 0.00 0.00 49 1008.5
20260503223704 11 282 11.3 19.3 0.00 0.00 0.00 47 1008.6
20260503223204 11 296 14.5 25.7 0.00 0.00 0.00 48 1008.5
20260503222205 11 286 11.3 20.9 0.00 0.00 0.00 47 1008.6
20260503221704 11 292 14.5 22.5 0.00 0.00 0.00 45 1008.5
20260503221204 11 344 9.7 24.1 0.00 0.00 0.00 48 1008.6
20260503220204 12 308 14.5 22.5 0.00 0.00 0.00 45 1008.6
20260503215705 12 273 9.7 19.3 0.00 0.00 0.00 45 1008.6
20260503215205 12 289 11.3 27.4 0.00 0.00 0.00 43 1008.6
20260503214705 12 291 20.9 32.2 0.00 0.00 0.00 44 1008.5
20260503214206 12 301 14.5 25.7 0.00 0.00 0.00 44 1008.4
20260503213705 12 293 14.5 25.7 0.00 0.00 0.00 45 1008.4
20260503213205 13 306 12.9 24.1 0.00 0.00 0.00 45 1008.5
20260503211705 13 288 16.1 32.2 0.00 0.00 0.00 45 1008.4
20260503211205 13 280 16.1 27.4 0.00 0.00 0.00 46 1008.4
20260503210705 13 291 11.3 22.5 0.00 0.00 0.00 49 1008.5
20260503210205 12 280 12.9 19.3 0.00 0.00 0.00 47 1008.4
20260503205705 13 288 16.1 29.0 0.00 0.00 0.00 48 1008.5
20260503204705 12 297 11.3 20.9 0.00 0.00 0.00 50 1008.6
20260503204205 12 291 11.3 24.1 0.00 0.00 0.00 47 1008.7
20260503203705 12 274 9.7 22.5 0.00 0.00 0.00 48 1008.7
20260503203205 13 290 14.5 24.1 0.00 0.00 0.00 49 1008.7
20260503202705 13 283 16.1 29.0 0.00 0.00 0.00 48 1008.8
20260503201705 13 302 14.5 24.1 0.00 0.00 0.00 51 1008.8
20260503201205 13 282 19.3 27.4 0.00 0.00 0.00 50 1008.8
20260503200705 12 313 4.8 16.1 0.00 0.00 0.00 50 1008.9
20260503200205 12 324 4.8 16.1 0.00 0.00 0.00 51 1008.9
20260503195705 12 312 4.8 16.1 0.00 0.00 0.00 50 1009.0
20260503194707 11 296 16.1 25.7 0.00 0.00 0.00 53 1009.0
20260503194205 11 294 6.4 16.1 0.00 0.00 0.00 53 1009.1
20260503193705 11 295 6.4 19.3 0.00 0.00 0.00 53 1009.2
20260503192705 11 303 6.4 16.1 0.00 0.00 0.00 53 1009.4
20260503192205 11 289 9.7 19.3 0.00 0.00 0.00 55 1009.4
20260503191704 10 278 14.5 22.5 0.00 0.00 0.00 55 1009.5
20260503190705 11 300 9.7 22.5 0.00 0.00 0.00 55 1009.6
20260503190206 11 284 11.3 19.3 0.00 0.00 0.00 55 1009.6
20260503185705 10 288 9.7 19.3 0.00 0.00 0.00 57 1009.6
20260503185205 10 298 9.7 14.5 0.00 0.00 0.00 57 1009.8
20260503184705 10 290 11.3 24.1 0.00 0.00 0.00 57 1009.9
20260503184205 10 280 12.9 25.7 0.00 0.00 0.00 56 1009.9
20260503183705 10 295 14.5 22.5 0.00 0.00 0.00 57 1009.9
20260503183205 10 304 9.7 19.3 0.00 0.00 0.00 56 1009.8
20260503182705 11 287 12.9 25.7 0.00 0.00 0.00 55 1009.9
20260503181705 11 295 14.5 20.9 0.00 0.00 0.00 57 1010.0
20260503181205 11 276 14.5 22.5 0.00 0.00 0.00 57 1009.9
20260503180205 11 296 9.7 19.3 0.00 0.00 0.00 56 1009.9
20260503175705 11 277 11.3 27.4 0.00 0.00 0.00 58 1010.0
20260503175205 11 291 16.1 32.2 0.00 0.00 0.00 57 1010.0
20260503174705 11 293 16.1 22.5 0.00 0.00 0.00 59 1010.0
20260503174205 10 279 16.1 29.0 0.00 0.00 0.00 58 1010.1
20260503173705 10 290 16.1 27.4 0.00 0.00 0.00 58 1010.1
20260503173205 10 288 14.5 24.1 0.00 0.00 0.00 57 1010.1
20260503172205 10 294 11.3 24.1 0.00 0.00 0.00 58 1010.1
20260503171705 10 304 8.0 24.1 0.00 0.00 0.00 57 1010.1
20260503171205 10 281 12.9 27.4 0.00 0.00 0.00 55 1010.0
20260503170705 10 300 11.3 22.5 0.00 0.00 0.00 56 1010.1
20260503170205 10 295 14.5 24.1 0.00 0.00 0.00 57 1010.0
20260503160204 10 300 17.7 27.4 0.00 0.00 0.00 61 1010.0
20260503150705 8 309 6.4 14.5 0.00 0.00 0.00 68 1010.3
20260503150205 8 289 4.8 12.9 0.00 0.00 0.00 68 1010.3
20260503131204 6 303 3.2 14.5 0.00 0.00 0.00 79 1011.0
20260503130705 6 290 8.0 14.5 0.00 0.00 0.00 80 1010.9
20260503130204 6 295 8.0 14.5 0.00 0.00 0.00 81 1010.9
20260503120205 5 280 1.6 3.2 0.00 0.03 0.00 89 1010.8